STARLINK-5710, 55616

Orbit data source: Space-Track

STARLINK-5710, 55616 is a payload satellite owned by SpaceX/Seattle (US) in LEO that was launched on Sun, 12 Feb 2023 UTC via an FALCON 9 launch vehicle from the Air Force Eastern Test Range (AFETR). Payload-class satellites include a variety of spacecraft equipped with specific instruments for various scientific and technological missions. These include communications satellites like Starlink; space stations such as the ISS; scientific satellites like the Hubble; Earth observation satellites from companies like Planet Labs, Umbra, and HawkEye 360; GPS; miniature CubeSats for education and research; and military/defense satellites.

Loading next visibility...
Identifier
55616, 2023-020AZ
Orbit
LEO
Country
Flag of USUS
Related business
Manufacturer
SpaceX/Seattle
Mission
Operational spacecraft
Bus & Motor
STARLINK, Unknown motor
Mass
305 kg wet, ~290 kg dry
Launch date (UTC)
2023-02-12 (3 years ago)
Launch vehicle
FALCON 9
Launch site
Air Force Eastern Test Range (AFETR)
Object type
Payload
Rocket body
Debris
Shape & HBR
Unknown shape, 10.1 m
Radar Cross Section
Large (>1 m²)

Expand to show TLE details & history
Last TLE update: 9 hours ago

TLE from 9 hours ago
0 STARLINK-5710
1 55616U 23020AZ  26061.92628144  .00000054  00000-0  19072-4 0  9993
2 55616  43.0048  28.2658 0001228 269.1061  90.9640 15.02525252168050
Epoch: 2026-03-02T22:13Z
TLE epoch observation values (Epoch: 2026-03-02T22:13:50.716Z)
Latitude
-0.00006°
Longitude
-105.90827°
Altitude
558.905 km
Speed
7.584 km/s
True Right ascension
01h 53m 03s
True Declination
0° 00' 00"
Sunlit
Object was in daylight at epoch
Visualization orbit readout
Latitude
Unknown
Longitude
Unknown
Altitude
Unknown
Speed
Unknown
Apparent Right ascension
Unknown
Apparent Declination
Unknown
Sunlit
N/A
Visualization observer readout
Local Sidereal Time
11:22:25
Azimuth
Unknown
Elevation
Unknown
Doppler factor
Unknown
Orbital elements
Apogee altitude
561.888 km
Perigee altitude
560.184 km
Semi-major axis
6,939.173 km
Eccentricity
0.00012
Inclination
43.0048°
RAAN
28.2658°
Arg. of periapsis
269.1061°
True anomaly
90.97807°
Mean anomaly
90.964°
Eccentric anomaly
90.97103°
Mean motion
3.75476 °/min
Orbital period
95.88 mins
BSTAR
0.000019072
Loading maneuver chart data...
Computing Atmospheric mass density...
Loading historical data...
Loading historical data...
Loading historical data...
Loading historical data...
Loading historical data...
Loading historical data...
Loading historical data...

Documentation

Showing up to 5 results
|